| time (UTC) | temp C | wind direction | speed KPH | gust KPH | rain 1hr cm | rain 24hr cm | rain mn cm | humidity % | barometer mb |
| 20260906074205 | 11 | 0 | 4.8 | 4.8 | 0.00 | 0.28 | 0.00 | 90 | 1016.1 |
| 20260906072706 | 11 | 28 | 3.2 | 4.8 | 0.00 | 0.28 | 0.00 | 90 | 1016.0 |
| 20260906072205 | 11 | 20 | 3.2 | 8.0 | 0.00 | 0.28 | 0.00 | 90 | 1015.9 |
| 20260906070205 | 11 | 11 | 4.8 | 8.0 | 0.00 | 0.28 | 0.00 | 91 | 1015.8 |
| 20260906064205 | 12 | 44 | 3.2 | 11.3 | 0.00 | 0.28 | 0.00 | 90 | 1015.7 |
| 20260906062705 | 12 | 37 | 3.2 | 4.8 | 0.00 | 0.28 | 0.00 | 90 | 1015.7 |
| 20260906062205 | 12 | 49 | 3.2 | 8.0 | 0.00 | 0.28 | 0.00 | 90 | 1015.7 |
| 20260906060705 | 12 | 44 | 3.2 | 11.3 | 0.00 | 0.28 | 0.00 | 91 | 1015.7 |
| 20260906060205 | 12 | 45 | 4.8 | 11.3 | 0.00 | 0.28 | 0.00 | 91 | 1015.6 |
| 20260906054706 | 12 | 36 | 4.8 | 8.0 | 0.00 | 0.28 | 0.00 | 91 | 1015.8 |
| 20260906054205 | 12 | 63 | 3.2 | 11.3 | 0.00 | 0.28 | 0.00 | 91 | 1015.8 |
| 20260906052705 | 12 | 47 | 3.2 | 11.3 | 0.00 | 0.28 | 0.00 | 90 | 1015.8 |
| 20260906052205 | 12 | 38 | 4.8 | 11.3 | 0.00 | 0.28 | 0.00 | 90 | 1015.8 |
| 20260906050705 | 12 | 53 | 3.2 | 8.0 | 0.00 | 0.28 | 0.00 | 90 | 1015.9 |
| 20260906050205 | 12 | 34 | 3.2 | 9.7 | 0.00 | 0.28 | 0.00 | 90 | 1015.8 |
| 20260906044705 | 12 | 38 | 3.2 | 8.0 | 0.00 | 0.28 | 0.00 | 90 | 1015.7 |
| 20260906044205 | 12 | 58 | 4.8 | 14.5 | 0.00 | 0.28 | 0.00 | 90 | 1015.7 |
| 20260906042705 | 12 | 49 | 4.8 | 11.3 | 0.00 | 0.28 | 0.00 | 89 | 1015.7 |
| 20260906040705 | 12 | 53 | 8.0 | 11.3 | 0.00 | 0.28 | 0.00 | 89 | 1015.6 |
| 20260906034205 | 12 | 63 | 8.0 | 19.3 | 0.00 | 0.28 | 0.28 | 89 | 1015.4 |
| 20260906032704 | 12 | 68 | 8.0 | 20.9 | 0.00 | 0.28 | 0.28 | 89 | 1015.4 |
| 20260906032205 | 12 | 51 | 8.0 | 14.5 | 0.00 | 0.28 | 0.28 | 89 | 1015.4 |
| 20260906030205 | 12 | 20 | 3.2 | 11.3 | 0.00 | 0.28 | 0.28 | 89 | 1015.4 |
| 20260906024705 | 12 | 52 | 4.8 | 12.9 | 0.00 | 0.28 | 0.28 | 90 | 1015.5 |
| 20260906022705 | 12 | 19 | 3.2 | 4.8 | 0.03 | 0.28 | 0.28 | 91 | 1015.7 |
| 20260906022205 | 12 | 19 | 3.2 | 4.8 | 0.03 | 0.28 | 0.28 | 91 | 1015.6 |
| 20260906020705 | 12 | 10 | 3.2 | 4.8 | 0.05 | 0.28 | 0.28 | 91 | 1015.6 |
| 20260906020205 | 12 | 7 | 3.2 | 4.8 | 0.08 | 0.28 | 0.28 | 91 | 1015.7 |
| 20260906014705 | 12 | 18 | 3.2 | 9.7 | 0.15 | 0.28 | 0.28 | 90 | 1015.8 |
| 20260906014205 | 12 | 40 | 4.8 | 12.9 | 0.20 | 0.28 | 0.28 | 90 | 1015.5 |
| 20260906012705 | 12 | 56 | 9.7 | 22.5 | 0.25 | 0.25 | 0.25 | 90 | 1015.1 |
| 20260906012204 | 12 | 68 | 8.0 | 22.5 | 0.25 | 0.25 | 0.25 | 90 | 1014.8 |
| 20260906010205 | 13 | 91 | 9.7 | 24.1 | 0.20 | 0.20 | 0.20 | 88 | 1015.3 |
| 20260906004206 | 13 | 76 | 4.8 | 12.9 | 0.08 | 0.08 | 0.08 | 88 | 1015.9 |
| 20260906002705 | 15 | 17 | 4.8 | 8.0 | 0.00 | 0.00 | 0.00 | 85 | 1016.0 |
| 20260906002205 | 15 | 14 | 4.8 | 14.5 | 0.00 | 0.00 | 0.00 | 83 | 1015.9 |
| 20260906000705 | 16 | 7 | 8.0 | 19.3 | 0.00 | 0.00 | 0.00 | 76 | 1015.6 |
| 20260906000205 | 16 | 17 | 6.4 | 14.5 | 0.00 | 0.00 | 0.00 | 74 | 1015.5 |
| 20260905234705 | 16 | 7 | 9.7 | 20.9 | 0.00 | 0.00 | 0.00 | 72 | 1015.4 |
| 20260905234205 | 16 | 50 | 4.8 | 20.9 | 0.00 | 0.00 | 0.00 | 71 | 1015.3 |
| 20260905232705 | 17 | 25 | 9.7 | 16.1 | 0.00 | 0.00 | 0.00 | 68 | 1015.0 |
| 20260905232205 | 17 | 29 | 8.0 | 19.3 | 0.00 | 0.00 | 0.00 | 68 | 1014.9 |
| 20260905230705 | 17 | 29 | 4.8 | 16.1 | 0.00 | 0.00 | 0.00 | 71 | 1014.4 |
| 20260905230205 | 17 | 39 | 9.7 | 24.1 | 0.00 | 0.00 | 0.00 | 70 | 1014.5 |
| 20260905224704 | 18 | 71 | 8.0 | 19.3 | 0.00 | 0.00 | 0.00 | 70 | 1014.4 |
| 20260905224204 | 18 | 66 | 6.4 | 16.1 | 0.00 | 0.00 | 0.00 | 70 | 1014.4 |
| 20260905222705 | 18 | 81 | 4.8 | 12.9 | 0.00 | 0.00 | 0.00 | 69 | 1014.3 |
| 20260905222204 | 18 | 43 | 8.0 | 16.1 | 0.00 | 0.00 | 0.00 | 68 | 1014.2 |
| 20260905220704 | 18 | 46 | 9.7 | 19.3 | 0.00 | 0.00 | 0.00 | 67 | 1014.0 |
| 20260905220205 | 18 | 44 | 6.4 | 19.3 | 0.00 | 0.00 | 0.00 | 67 | 1014.0 |
| 20260905214704 | 19 | 31 | 4.8 | 19.3 | 0.00 | 0.00 | 0.00 | 70 | 1013.6 |
| 20260905214204 | 19 | 50 | 9.7 | 24.1 | 0.00 | 0.00 | 0.00 | 70 | 1013.5 |
| 20260905212704 | 19 | 34 | 8.0 | 16.1 | 0.00 | 0.00 | 0.00 | 69 | 1013.3 |
| 20260905212205 | 20 | 57 | 4.8 | 19.3 | 0.00 | 0.00 | 0.00 | 69 | 1013.3 |
| 20260905210704 | 20 | 50 | 8.0 | 16.1 | 0.00 | 0.00 | 0.00 | 68 | 1013.0 |
| 20260905210204 | 20 | 46 | 8.0 | 20.9 | 0.00 | 0.00 | 0.00 | 69 | 1013.0 |
| 20260905204705 | 20 | 61 | 6.4 | 16.1 | 0.00 | 0.00 | 0.00 | 68 | 1013.0 |
| 20260905204205 | 20 | 61 | 14.5 | 24.1 | 0.00 | 0.00 | 0.00 | 66 | 1013.0 |
| 20260905202704 | 20 | 51 | 8.0 | 16.1 | 0.00 | 0.00 | 0.00 | 65 | 1012.8 |
| 20260905202204 | 20 | 60 | 6.4 | 19.3 | 0.00 | 0.00 | 0.00 | 66 | 1012.8 |
| 20260905200705 | 21 | 57 | 6.4 | 19.3 | 0.00 | 0.00 | 0.00 | 64 | 1012.7 |
| 20260905200204 | 21 | 18 | 6.4 | 19.3 | 0.00 | 0.00 | 0.00 | 63 | 1012.7 |
| 20260905194704 | 20 | 41 | 8.0 | 12.9 | 0.00 | 0.00 | 0.00 | 65 | 1012.6 |
| 20260905192705 | 21 | 58 | 9.7 | 19.3 | 0.00 | 0.00 | 0.00 | 63 | 1012.6 |
| 20260905192204 | 21 | 61 | 8.0 | 20.9 | 0.00 | 0.00 | 0.00 | 63 | 1012.7 |
| 20260905190705 | 20 | 58 | 8.0 | 16.1 | 0.00 | 0.00 | 0.00 | 65 | 1012.6 |
| 20260905190205 | 20 | 31 | 11.3 | 20.9 | 0.00 | 0.00 | 0.00 | 62 | 1012.7 |
| 20260905182206 | 20 | 11 | 6.4 | 19.3 | 0.00 | 0.00 | 0.00 | 72 | 1012.7 |
| 20260905180705 | 20 | 21 | 9.7 | 19.3 | 0.00 | 0.00 | 0.00 | 71 | 1012.8 |
| 20260905180204 | 20 | 72 | 4.8 | 20.9 | 0.00 | 0.00 | 0.00 | 72 | 1012.8 |
| 20260905174705 | 20 | 28 | 4.8 | 16.1 | 0.00 | 0.00 | 0.00 | 70 | 1012.8 |
| 20260905174205 | 20 | 26 | 9.7 | 19.3 | 0.00 | 0.00 | 0.00 | 73 | 1012.8 |
| 20260905172705 | 20 | 14 | 6.4 | 11.3 | 0.00 | 0.00 | 0.00 | 74 | 1012.7 |
| 20260905172204 | 19 | 37 | 8.0 | 19.3 | 0.00 | 0.00 | 0.00 | 76 | 1012.7 |
| 20260905170705 | 18 | 60 | 4.8 | 14.5 | 0.00 | 0.00 | 0.00 | 80 | 1012.9 |
| 20260905170204 | 17 | 39 | 6.4 | 20.9 | 0.00 | 0.00 | 0.00 | 80 | 1012.9 |
| 20260905164705 | 18 | 74 | 8.0 | 14.5 | 0.00 | 0.00 | 0.00 | 80 | 1013.0 |
| 20260905164204 | 17 | 20 | 6.4 | 14.5 | 0.00 | 0.00 | 0.00 | 80 | 1013.0 |
| 20260905162205 | 17 | 5 | 4.8 | 16.1 | 0.00 | 0.00 | 0.00 | 81 | 1013.0 |
| 20260905160704 | 17 | 54 | 3.2 | 9.7 | 0.00 | 0.00 | 0.00 | 82 | 1013.0 |
| 20260905160204 | 17 | 10 | 4.8 | 14.5 | 0.00 | 0.00 | 0.00 | 82 | 1013.0 |
| 20260905154704 | 17 | 66 | 4.8 | 14.5 | 0.00 | 0.00 | 0.00 | 81 | 1013.0 |
| 20260905154204 | 17 | 33 | 9.7 | 19.3 | 0.00 | 0.00 | 0.00 | 82 | 1012.9 |
| 20260905152704 | 17 | 59 | 6.4 | 20.9 | 0.00 | 0.00 | 0.00 | 83 | 1012.9 |
| 20260905152204 | 17 | 53 | 4.8 | 14.5 | 0.00 | 0.00 | 0.00 | 84 | 1012.9 |
| 20260905150704 | 17 | 75 | 4.8 | 12.9 | 0.00 | 0.00 | 0.00 | 84 | 1013.1 |
| 20260905150205 | 17 | 59 | 8.0 | 19.3 | 0.00 | 0.00 | 0.00 | 84 | 1013.0 |
| 20260905144704 | 17 | 29 | 8.0 | 14.5 | 0.00 | 0.00 | 0.00 | 82 | 1012.9 |
| 20260905144204 | 17 | 35 | 8.0 | 16.1 | 0.00 | 0.00 | 0.00 | 82 | 1012.9 |
| 20260905142704 | 17 | 59 | 4.8 | 12.9 | 0.00 | 0.00 | 0.00 | 83 | 1012.7 |
| 20260905140704 | 17 | 83 | 8.0 | 19.3 | 0.00 | 0.00 | 0.00 | 84 | 1012.6 |
| 20260905134705 | 17 | 12 | 6.4 | 12.9 | 0.00 | 0.00 | 0.00 | 85 | 1012.4 |
| 20260905134204 | 16 | 12 | 6.4 | 19.3 | 0.00 | 0.00 | 0.00 | 85 | 1012.3 |
| 20260905130704 | 16 | 50 | 4.8 | 14.5 | 0.00 | 0.00 | 0.00 | 88 | 1012.2 |
| 20260905130204 | 16 | 68 | 6.4 | 14.5 | 0.00 | 0.00 | 0.00 | 88 | 1012.1 |
| 20260905124204 | 16 | 21 | 4.8 | 14.5 | 0.00 | 0.00 | 0.00 | 90 | 1011.9 |
| 20260905122204 | 15 | 14 | 3.2 | 9.7 | 0.00 | 0.00 | 0.00 | 91 | 1012.0 |
| 20260905120704 | 15 | 0 | 4.8 | 9.7 | 0.00 | 0.00 | 0.00 | 91 | 1012.0 |
| 20260905120204 | 15 | 11 | 4.8 | 9.7 | 0.00 | 0.00 | 0.00 | 91 | 1011.9 |
| 20260905114703 | 15 | 5 | 3.2 | 4.8 | 0.00 | 0.00 | 0.00 | 91 | 1011.8 |
| 20260905114204 | 15 | 19 | 4.8 | 11.3 | 0.00 | 0.00 | 0.00 | 91 | 1011.8 |
| 20260905112704 | 15 | 11 | 4.8 | 9.7 | 0.00 | 0.00 | 0.00 | 92 | 1011.7 |
| 20260905110704 | 15 | 14 | 4.8 | 9.7 | 0.00 | 0.00 | 0.00 | 92 | 1011.6 |
| 20260905104704 | 15 | 11 | 3.2 | 9.7 | 0.00 | 0.00 | 0.00 | 91 | 1011.5 |
| 20260905104204 | 15 | 30 | 3.2 | 4.8 | 0.00 | 0.00 | 0.00 | 91 | 1011.5 |
| 20260905100704 | 15 | 14 | 3.2 | 4.8 | 0.00 | 0.00 | 0.00 | 90 | 1011.2 |
| 20260905100204 | 15 | 14 | 3.2 | 4.8 | 0.00 | 0.00 | 0.00 | 90 | 1011.2 |
| 20260905094704 | 15 | 44 | 1.6 | 4.8 | 0.00 | 0.00 | 0.00 | 90 | 1011.1 |
| 20260905094204 | 15 | 44 | 3.2 | 11.3 | 0.00 | 0.00 | 0.00 | 90 | 1011.2 |
| 20260905092704 | 15 | 19 | 3.2 | 4.8 | 0.00 | 0.00 | 0.00 | 90 | 1011.0 |
| 20260905092204 | 15 | 36 | 3.2 | 4.8 | 0.00 | 0.00 | 0.00 | 90 | 1011.0 |
| 20260905090204 | 15 | 344 | 1.6 | 4.8 | 0.00 | 0.00 | 0.00 | 90 | 1010.9 |
| 20260905084704 | 15 | 11 | 3.2 | 8.0 | 0.00 | 0.00 | 0.00 | 90 | 1010.9 |
| 20260905084204 | 15 | 31 | 3.2 | 4.8 | 0.00 | 0.00 | 0.00 | 90 | 1010.9 |
| 20260905082704 | 15 | 39 | 4.8 | 4.8 | 0.00 | 0.00 | 0.00 | 90 | 1010.8 |
| 20260905082204 | 15 | 47 | 1.6 | 9.7 | 0.00 | 0.00 | 0.00 | 90 | 1010.7 |
| 20260905080704 | 15 | 54 | 4.8 | 11.3 | 0.00 | 0.00 | 0.00 | 89 | 1010.6 |
| 20260905080204 | 15 | 47 | 3.2 | 8.0 | 0.00 | 0.00 | 0.00 | 89 | 1010.5 |